User: anonymous   Login
Location: Salamanca
(40.9670°N, 5.6500°W)
Time: 13:17:04
(UTC+02:00)
Language:

Cosmos 1633 Rocket - Orbit

View from above orbital plane
View from above orbital plane
View from above satellite
View from above satellite

Ground track
Ground track

The orbit data is extracted from the following two-line orbital elements,

1 15593U 85020B   17083.84353164 +.00000096 +00000-0 +86484-5 0  9991
2 15593 082.5402 341.5882 0010731 325.1024 079.4306 14.84264274710690
Epoch (UTC): 24 March 2017 20:14:41
Eccentricity: 0.0010731
inclination: 82.5402°
perigee height: 608 km
apogee height: 623 km
right ascension of ascending node: 341.5882°
argument of perigee: 325.1024°
revolutions per day: 14.84264274
mean anomaly at epoch: 79.4306°
orbit number at epoch: 71069

The dashed part of the orbit path shows where the satellite is in the earth's shadow,  

DLR